Location: Hylvaty SDH
(49.9612°N, 16.4057°E)
Time: 20:57:00
(UTC+01:00)

Vanguard 1 Rocket - Pass Details

Date: 03 October 2020
Orbit: 656 x 4221 km, 34.3° (Epoch: 30 October)

Event Time Altitude Azimuth Distance (km) Brightness Sun altitude
Rises 17:09:33 0° 219° (SW) 4,407 12.0 11.4°
Reaches altitude 10° 17:12:23 10° 208° (SSW) 3,796 11.5 11.0°
Maximum altitude 17:21:21 32° 149° (SSE) 3,428 10.3 9.6°
Drops below altitude 10° 17:36:27 10° 96° (E) 6,439 11.2 7.3°
Sets 17:43:12 0° 89° (E) 7,937 11.5 6.2°
